{"data":{"norad_id":51795,"intl_designator":"2022-017AD","name":"STARLINK-3586","alt_names":[],"object_type":"PAYLOAD","status":"ACTIVE","operator":null,"country":"US","launch_date":"2022-02-25","launch_site_code":"AFWTR","launch_vehicle":null,"mission":null,"orbit_class":"UNKNOWN","rcs_meters":null,"size_class":null,"mass_kg":null,"dimensions":null,"purposes":["comms"],"wikipedia_slug":null,"has_3d_model":false,"image_url":null,"decayed_at":null,"tle_current":{"epoch":"2026-09-20T01:40:35.734656Z","epoch_age_seconds":88830,"freshness":"FRESH","line1":"1 51795U 22017AD  26263.06985804  .00000721  00000+0  32488-4 0  9996","line2":"2 51795  53.1600 181.3854 0001221  91.5840 268.5302 15.34392435253473","mean_motion":15.34392435,"eccentricity":0.0001221,"inclination_deg":53.16,"raan_deg":181.3854,"arg_perigee_deg":91.584,"mean_anomaly_deg":268.5302,"bstar":3.2488e-5,"rev_number":25347,"period_min":93.848220778018,"perigee_km":461.89045573501,"apogee_km":463.56099441247,"semimajor_km":6840.8627250737,"source":"CELESTRAK","updated_at":"2026-09-20T09:00:39.941122Z"}}}